Temperature
21 21 21 22 16 12 9 10 10 9 8 8 8 7 6 6 6 4 4 5 7 8 9 9 9 10 10 10 10 10 10 10 10 10 11 11 11 11 12 12 12 12 13 13 13 13 13 13 14
21 21 21 19 13 11 10 9 9 8 8 8 8 7 7 6 5 5 5 6 7 8 9 9 9 9 9 10 10 10 10 10 10 10 10 10 10 10 10 11 11 11 12 12 12 12 13 13 13
22 22 19 11 9 9 10 9 8 8 8 8 7 7 6 5 5 5 5 6 7 8 9 9 9 9 9 9 9 9 9 8 8 8 8 8 8 8 8 9 9 10 10 11 11 11 12 12 12
22 21 14 10 8 8 9 9 9 8 8 8 7 5 4 4 4 5 5 6 7 8 9 9 9 9 8 8 8 8 7 7 7 7 6 6 7 7 6 7 7 8 8 8 9 10 10 11 12
22 18 10 8 8 8 8 8 9 8 7 7 6 4 3 3 4 5 6 7 8 8 8 8 8 8 8 7 7 6 6 6 6 5 5 5 6 6 5 6 6 6 6 6 7 8 9 9 10
21 14 11 8 8 8 8 8 8 7 7 6 5 3 2 3 4 5 6 7 8 8 8 8 8 7 7 6 6 5 5 5 5 5 5 5 5 5 5 5 5 5 5 5 6 6 7 7 8
17 10 9 8 8 9 8 8 7 6 6 6 6 3 2 3 4 5 6 7 7 7 7 7 7 6 6 5 5 5 4 4 4 4 4 4 4 4 4 4 4 4 4 4 4 5 5 6 7
18 11 9 9 9 9 8 8 7 7 6 6 6 4 3 4 5 5 6 6 7 7 7 6 5 5 5 4 4 4 4 3 3 3 3 3 4 4 4 4 4 3 3 3 4 4 4 5 6
18 11 10 10 10 8 8 7 6 6 6 5 5 5 4 5 5 6 6 7 7 6 6 5 4 4 4 3 3 3 3 3 3 3 3 3 3 3 3 3 3 3 3 3 3 3 3 4 5
15 10 10 10 9 7 8 7 5 5 5 4 4 5 5 5 5 6 6 6 6 5 4 4 3 3 3 2 2 2 2 2 2 2 2 2 2 2 2 2 2 2 2 2 2 2 3 3 4
10 8 8 8 9 8 7 6 6 6 4 4 5 5 5 5 5 6 5 5 4 3 3 3 2 2 2 2 2 2 2 1 1 1 1 1 1 1 1 1 1 1 1 1 1 2 2 2 2
9 8 9 9 9 9 7 7 6 6 6 6 6 6 5 5 5 5 4 4 3 2 2 2 2 2 2 1 1 1 1 1 1 0 -0 -0 0 -0 -0 -0 -1 -0 -0 -0 -0 -0 0 1 1
8 8 8 9 9 8 8 7 6 6 6 6 5 5 5 5 5 4 4 3 2 2 2 2 2 1 1 1 1 0 0 -0 -0 -1 -1 -1 -2 -2 -2 -2 -2 -2 -3 -2 -2 -2 -2 -1 -0
8 8 8 9 9 8 6 5 6 5 6 5 5 5 5 5 4 4 3 2 1 1 1 1 1 1 1 1 0 -0 -0 -1 -1 -2 -2 -3 -3 -3 -4 -4 -4 -4 -4 -4 -4 -4 -3 -3 -2
10 8 8 8 8 7 7 6 5 5 5 5 5 5 5 4 4 3 2 2 1 1 1 1 1 0 0 0 -0 -1 -1 -2 -2 -3 -3 -4 -4 -5 -5 -5 -6 -6 -6 -6 -5 -5 -5 -4 -4
10 9 10 9 8 7 7 8 6 5 5 4 5 4 4 4 3 3 2 1 1 0 -0 0 0 0 0 -0 -1 -1 -2 -3 -3 -4 -5 -5 -6 -6 -6 -7 -7 -7 -7 -7 -7 -6 -6 -5 -5
11 11 11 9 7 7 7 7 5 5 5 4 4 4 4 4 3 2 2 1 0 -1 -1 -0 -0 -0 -0 -1 -1 -2 -3 -3 -4 -5 -5 -6 -6 -7 -7 -8 -8 -8 -8 -8 -8 -8 -8 -7 -7
14 12 12 10 8 6 6 6 5 5 4 4 4 4 4 4 3 2 1 0 -1 -1 -1 -1 -1 -1 -1 -2 -2 -3 -3 -4 -5 -6 -6 -7 -7 -8 -9 -9 -9 -10 -10 -10 -9 -9 -9 -9 -8
14 13 12 11 8 7 6 6 5 4 4 3 4 4 4 4 3 2 1 -0 -1 -1 -1 -1 -1 -1 -2 -3 -3 -4 -4 -5 -6 -7 -7 -8 -8 -9 -10 -10 -10 -11 -11 -11 -11 -11 -10 -10 -10
13 13 12 10 9 8 7 6 5 4 3 4 4 4 4 3 3 2 0 -1 -1 -1 -1 -1 -2 -2 -3 -4 -5 -5 -6 -6 -7 -7 -8 -9 -9 -10 -10 -11 -11 -12 -12 -12 -12 -12 -12 -12 -12
13 13 12 11 9 7 7 7 5 4 4 4 4 4 4 3 2 1 -0 -1 -1 -1 -1 -2 -2 -3 -4 -5 -5 -5 -6 -6 -7 -8 -9 -10 -10 -11 -11 -12 -12 -13 -13 -13 -13 -13 -13 -13 -12
13 12 12 10 9 7 8 8 7 3 3 3 3 4 3 3 2 1 -0 -1 -1 -1 -2 -2 -3 -4 -4 -5 -5 -6 -7 -8 -8 -9 -10 -10 -11 -11 -12 -12 -13 -13 -14 -14 -13 -14 -13 -13 -13
12 11 10 9 9 8 7 7 7 3 3 2 2 3 3 2 1 0 -0 -1 -1 -2 -2 -2 -3 -4 -4 -5 -6 -7 -8 -9 -9 -10 -10 -11 -11 -12 -12 -13 -13 -13 -14 -14 -14 -14 -14 -14 -14
11 10 9 7 7 9 9 8 8 3 3 3 2 3 3 2 1 0 -1 -1 -2 -2 -2 -3 -3 -4 -5 -5 -6 -7 -8 -9 -9 -10 -11 -12 -12 -12 -13 -13 -13 -13 -14 -14 -14 -14 -14 -14 -13
11 11 10 11 10 10 8 8 7 6 3 3 2 2 2 1 1 -0 -1 -1 -2 -2 -2 -3 -3 -4 -5 -6 -7 -8 -9 -9 -10 -11 -12 -12 -12 -13 -13 -13 -13 -13 -13 -14 -14 -14 -14 -13 -13
11 11 11 12 10 8 8 7 6 4 3 3 3 3 2 1 0 -0 -1 -2 -2 -2 -3 -3 -4 -5 -5 -6 -7 -8 -9 -10 -11 -12 -12 -13 -13 -13 -13 -13 -13 -13 -13 -13 -13 -13 -13 -13 -12
11 9 9 8 8 8 7 7 6 3 2 1 1 1 1 1 -0 -1 -2 -2 -2 -3 -3 -4 -4 -5 -6 -6 -7 -8 -9 -10 -11 -12 -12 -12 -12 -13 -12 -13 -13 -13 -13 -13 -13 -13 -13 -12 -12
10 7 7 8 10 9 8 8 8 5 2 -0 -0 0 1 0 -1 -1 -2 -2 -2 -3 -4 -4 -5 -5 -6 -6 -7 -8 -9 -10 -11 -12 -12 -12 -12 -12 -12 -12 -12 -13 -13 -12 -12 -12 -12 -11 -11
9 9 7 6 7 8 8 9 7 6 3 1 0 1 1 0 -1 -1 -2 -2 -3 -3 -4 -4 -5 -5 -6 -6 -7 -8 -9 -11 -11 -12 -12 -12 -12 -12 -12 -12 -12 -12 -11 -11 -11 -11 -11 -11 -10
10 10 7 9 8 6 5 8 6 4 4 3 1 1 1 -0 -1 -2 -2 -2 -3 -3 -4 -5 -5 -5 -6 -6 -7 -8 -9 -10 -11 -12 -12 -12 -12 -12 -11 -11 -11 -10 -10 -10 -10 -10 -10 -10 -10
Wind_Speed
6 6 4 5 9 10 6 5 3 5 5 3 3 7 9 7 7 7 1 13 18 20 23 26 29 29 29 29 29 30 30 30 30 30 30 30 30 30 30 30 30 30 30 29 29 29 28 28 28
5 5 8 7 7 7 5 4 5 4 7 5 5 6 7 7 6 6 5 11 17 19 23 25 28 28 29 29 29 29 30 30 30 30 29 29 30 30 29 30 30 30 29 29 29 29 29 28 28
7 9 7 7 7 5 5 3 5 6 6 4 5 7 6 5 5 4 6 11 14 19 24 26 29 29 28 29 29 29 29 29 29 29 29 29 29 29 29 30 30 30 30 29 28 28 29 29 29
6 7 8 10 10 4 3 2 4 7 5 7 6 6 5 6 4 5 6 9 12 19 25 27 29 28 28 28 29 29 29 29 28 28 28 28 29 29 29 29 29 29 29 29 28 28 28 28 29
5 7 9 8 6 4 4 3 3 4 4 5 6 6 4 4 6 6 5 9 13 18 23 26 28 28 27 27 28 28 28 28 28 28 29 29 29 29 28 29 29 29 29 28 28 28 29 28 28
6 6 8 6 6 5 3 3 4 6 6 6 7 6 3 3 3 3 5 10 15 17 21 24 27 28 27 26 27 28 27 27 27 28 29 29 30 30 29 29 29 29 28 28 28 28 29 28 28
6 7 7 8 7 5 4 3 5 5 5 3 6 6 5 3 3 3 5 9 14 17 20 23 25 25 25 25 26 27 27 27 27 27 29 29 30 30 29 30 29 29 29 28 28 28 29 29 28
6 7 7 6 7 5 5 4 4 4 5 3 4 8 6 5 5 3 3 7 10 15 19 22 24 24 24 23 25 27 26 26 26 26 27 28 28 28 28 29 29 29 28 28 28 29 29 29 27
5 6 5 6 8 7 5 5 4 4 6 5 4 4 7 8 4 1 1 5 8 12 15 21 22 23 23 20 21 23 22 23 23 23 26 25 23 23 24 27 28 28 28 28 28 29 28 28 26
7 6 4 1 7 8 6 6 8 5 6 4 5 5 6 5 3 3 8 10 11 11 9 16 19 20 20 18 18 20 19 20 21 21 23 22 21 21 22 24 25 27 27 27 28 28 26 24 21
7 7 5 5 6 8 6 6 6 9 4 7 9 9 7 5 4 6 8 7 7 6 7 11 15 18 18 18 16 18 18 18 19 20 22 21 20 19 20 20 20 22 23 22 24 23 21 21 20
8 7 5 5 5 6 6 6 5 3 4 8 10 10 7 6 6 7 6 6 5 6 7 8 13 16 17 17 16 16 17 16 17 18 20 20 18 18 19 18 19 19 19 21 20 20 22 21 21
7 5 5 8 11 8 7 6 5 3 6 9 9 8 8 7 6 5 5 5 5 6 7 8 10 15 16 16 15 16 16 16 17 18 19 20 18 17 18 17 17 18 20 19 19 19 20 20 20
6 8 7 7 7 4 7 5 6 4 6 8 8 7 7 7 6 4 4 4 4 6 7 10 8 15 15 15 15 15 17 17 17 17 19 20 19 18 17 16 16 17 19 20 19 19 18 16 17
6 7 6 3 4 4 7 3 6 8 8 8 7 6 6 5 5 5 3 2 3 5 7 9 9 14 14 15 16 17 18 17 17 17 19 19 19 19 18 15 14 17 20 20 19 18 15 14 14
5 5 2 2 4 4 4 5 6 10 10 9 8 6 6 5 5 4 3 1 3 5 6 8 11 12 14 15 16 17 18 18 17 18 18 19 19 20 18 15 14 19 19 17 15 10 12 12 13
3 2 2 3 5 5 5 6 5 9 11 10 9 8 6 5 4 4 3 1 3 5 6 6 9 11 14 16 16 16 17 17 17 18 18 19 20 20 19 16 15 19 16 14 13 10 11 13 14
2 2 3 4 6 7 6 7 5 9 11 10 9 8 7 7 6 5 3 1 3 4 5 6 8 11 13 14 13 13 13 15 17 17 18 21 20 21 20 17 16 18 12 8 9 12 11 11 13
2 3 3 2 5 7 9 9 7 9 10 10 9 9 9 8 4 4 3 0 3 4 6 6 7 9 10 6 6 7 8 7 11 15 19 21 21 21 20 16 16 16 9 10 11 11 13 11 11
3 2 2 1 3 5 5 8 5 8 9 9 11 11 9 6 4 4 3 1 3 5 6 7 8 8 10 8 8 6 7 7 11 15 17 19 21 22 20 18 16 15 10 10 10 12 10 11 9
2 1 2 2 1 2 4 7 3 4 5 6 7 7 7 8 7 5 3 2 3 5 7 8 8 8 11 13 11 10 5 4 6 7 8 17 21 22 21 20 18 16 10 10 11 11 11 12 11
1 1 1 3 1 4 2 6 5 4 4 6 8 8 8 6 6 4 2 1 3 5 6 7 7 8 11 13 9 9 9 10 10 8 9 19 21 21 21 20 19 17 13 11 11 10 10 11 11
1 1 2 3 2 3 1 2 6 2 6 9 9 9 8 7 6 5 2 2 4 5 6 7 7 7 10 12 9 9 8 7 9 9 9 10 16 19 20 21 19 17 14 11 11 12 10 9 10
1 4 5 5 4 3 3 4 7 5 7 6 8 9 8 7 6 5 3 4 4 5 5 6 8 8 8 9 9 9 10 11 13 13 11 10 9 13 17 21 19 18 15 13 13 11 11 10 11
5 5 6 6 5 5 1 3 9 4 6 6 9 10 9 8 6 3 2 4 5 6 7 7 8 9 9 9 9 10 10 9 11 13 12 13 12 12 12 19 17 17 17 18 16 12 12 11 11
3 4 4 3 5 7 2 6 7 1 1 1 6 8 8 7 6 4 2 2 4 6 7 8 9 9 9 10 9 8 8 8 8 11 12 12 12 12 19 20 21 21 21 19 15 12 12 10 10
3 3 3 5 2 5 7 8 6 2 1 3 7 8 8 8 7 5 1 1 4 6 6 8 8 9 9 9 10 8 8 9 10 10 11 10 12 17 21 22 20 21 20 17 13 11 12 11 11
3 7 5 3 2 6 8 7 6 8 10 8 9 10 9 8 7 5 2 1 3 5 6 7 8 8 9 9 9 11 9 11 12 11 12 12 16 19 19 18 19 18 18 16 13 11 11 11 11
4 4 4 4 4 3 6 9 6 8 9 13 14 11 10 9 8 5 2 1 3 5 6 7 8 8 8 8 8 9 9 11 12 10 11 13 15 18 17 17 18 19 18 15 12 11 12 11 10
4 6 7 3 4 5 4 9 2 4 6 9 11 10 9 9 7 5 2 1 4 6 7 7 7 8 8 8 8 9 10 10 10 11 12 15 15 17 18 18 18 19 17 14 12 11 11 11 11
Wind_Direction
37 69 62 54 61 61 62 29 73 88 76 54 48 82 93 72 81 125 161 14 3 0 0 6 14 16 16 17 17 16 15 15 14 13 12 10 9 7 7 5 3 2 360 358 357 356 355 354 353
57 65 50 56 76 76 36 19 62 74 128 135 68 68 70 71 77 84 24 7 7 7 8 9 16 16 17 17 16 16 15 14 13 12 11 10 8 6 5 3 1 360 358 356 355 354 352 351 349
71 57 65 64 73 102 115 47 95 88 105 111 75 54 63 39 43 55 19 8 11 18 16 12 18 17 17 17 16 15 14 13 12 11 10 9 7 5 4 2 359 357 356 354 353 352 350 348 347
71 55 61 65 74 42 83 105 112 116 71 54 80 56 53 9 41 61 30 19 21 26 22 16 19 17 16 16 16 14 13 12 12 11 9 8 6 3 1 0 357 355 354 352 351 349 348 346 345
60 74 69 65 68 58 36 31 77 92 66 54 85 90 72 26 44 57 41 33 33 31 27 21 20 18 16 15 15 13 13 12 11 10 9 7 5 1 360 359 355 353 352 350 349 347 346 345 344
57 65 79 96 109 124 77 44 85 84 96 94 95 101 95 59 61 49 45 44 44 37 31 26 21 19 16 15 15 13 12 11 11 9 8 6 3 0 359 357 353 352 350 348 347 345 344 342 342
84 74 94 120 133 137 128 79 74 99 94 95 117 109 141 143 135 90 53 51 50 43 36 28 23 20 16 14 14 12 12 11 10 8 6 5 2 359 357 355 352 351 349 348 346 344 342 341 340
102 94 92 121 135 135 133 100 84 91 111 52 96 135 167 175 154 122 58 44 49 45 39 30 25 20 14 12 14 12 11 10 9 7 4 2 359 356 355 352 349 350 348 347 345 343 341 341 339
76 73 106 154 154 146 140 113 87 62 91 51 59 124 142 139 143 158 46 37 35 34 35 29 24 20 15 13 12 9 9 7 7 3 2 360 354 350 352 348 348 348 346 346 343 342 341 340 337
52 94 118 62 144 138 124 123 144 109 86 76 67 83 107 118 149 102 52 36 27 17 18 27 22 18 16 12 7 8 4 0 360 358 358 355 351 348 349 345 347 347 345 344 341 340 341 338 332
58 100 111 69 100 112 110 116 131 128 144 175 169 162 149 144 125 77 62 48 29 6 1 13 19 17 16 9 5 7 360 357 356 355 355 352 349 347 345 342 342 342 343 340 337 337 335 331 328
81 59 90 108 92 92 110 115 114 164 183 161 158 152 154 141 102 85 73 51 24 5 350 356 17 16 13 9 2 5 357 354 352 350 352 352 348 345 342 338 336 339 339 335 333 330 327 325 323
75 89 60 82 83 88 91 96 113 97 106 117 129 135 144 129 112 98 90 63 28 2 344 346 14 14 9 7 2 359 353 350 346 347 350 350 346 341 339 334 333 334 336 333 329 327 324 323 321
94 93 95 77 82 87 109 109 110 152 136 132 143 151 149 141 135 114 84 48 16 353 343 342 13 13 7 3 357 354 349 345 344 344 344 346 342 337 336 331 328 332 334 330 326 321 319 320 317
101 88 77 87 95 116 117 138 192 167 149 154 167 167 155 144 134 133 127 83 12 353 341 342 7 7 4 1 356 350 343 341 338 338 338 339 338 335 333 327 325 330 330 328 326 319 322 319 316
86 90 106 183 124 143 154 254 181 155 156 174 186 185 169 153 148 149 147 120 23 353 335 334 355 358 0 358 351 344 339 336 332 331 331 333 334 332 331 325 321 327 327 327 325 324 326 320 316
59 111 217 196 182 157 190 242 171 165 169 185 196 199 191 178 172 169 161 108 13 339 319 322 338 351 354 351 345 338 333 329 327 327 328 331 331 330 328 319 318 326 323 323 324 328 322 319 317
203 215 240 234 194 168 210 243 185 180 183 192 199 204 206 207 205 181 171 124 341 321 311 315 336 349 349 344 339 333 328 325 325 325 327 330 329 328 325 318 321 323 319 318 319 319 319 315 315
154 181 243 259 163 181 223 245 215 186 189 195 204 209 215 221 199 167 167 219 322 315 329 335 344 343 346 342 338 330 327 320 318 324 328 326 326 325 322 320 321 319 316 316 316 319 318 318 319
132 148 250 279 151 202 255 261 227 185 198 199 200 205 210 205 187 191 191 233 313 322 336 342 345 335 339 334 323 312 310 306 313 320 320 324 326 325 325 322 319 316 313 313 314 317 314 319 326
81 158 264 255 72 63 328 302 193 188 181 189 199 199 198 199 201 201 207 254 322 337 340 342 332 330 334 334 330 329 310 300 320 324 315 325 326 323 321 318 317 314 310 310 309 306 313 315 313
356 272 194 153 66 306 355 305 267 195 198 204 200 192 191 185 174 174 179 326 350 343 338 332 328 329 333 337 335 335 341 333 329 325 320 325 325 323 323 321 317 312 310 305 304 314 305 303 307
249 32 122 149 160 324 333 229 291 145 240 231 210 198 188 174 161 151 125 39 11 348 335 330 331 328 332 335 331 327 322 315 320 322 319 320 324 323 322 321 316 312 310 302 298 300 295 295 292
130 81 69 66 71 320 239 197 282 219 223 230 199 190 179 164 146 127 85 37 357 339 334 339 341 333 330 331 327 323 320 322 328 331 329 329 324 321 318 319 314 309 307 301 299 294 291 290 286
56 58 10 355 356 279 172 230 254 247 218 214 193 182 170 158 145 126 60 5 339 339 345 345 341 333 329 328 324 321 318 320 324 328 329 328 327 325 318 317 313 310 305 303 299 296 293 287 283
42 95 117 281 282 298 293 250 262 151 359 177 161 154 152 152 146 136 98 349 331 343 346 341 335 329 327 327 325 316 320 327 325 323 323 321 320 317 315 317 315 311 307 305 300 296 291 288 284
96 97 136 147 309 291 283 282 294 144 162 140 145 152 165 163 157 151 144 334 344 346 337 332 328 325 323 323 324 324 330 327 325 321 319 318 318 321 321 318 316 315 312 309 303 294 291 288 284
73 141 100 114 312 297 294 285 263 230 225 207 194 187 180 168 163 162 182 320 343 337 325 327 324 318 314 319 327 340 329 325 325 323 322 322 322 323 322 324 324 323 320 317 310 302 297 296 292
130 118 114 118 160 209 291 280 226 225 213 205 203 192 179 174 174 180 203 320 341 332 327 324 319 315 315 321 325 327 325 326 326 324 323 324 324 326 328 329 330 329 326 324 320 317 314 314 313
176 183 157 173 223 196 227 271 268 242 229 199 188 179 171 168 169 175 184 345 335 325 322 319 314 314 314 321 328 329 327 326 327 327 326 328 329 331 333 334 336 338 339 340 339 339 342 342 343
Height
1534 1535 1537 1538 1547 1573 1597 1601 1600 1604 1607 1611 1610 1610 1613 1618 1622 1631 1629 1624 1622 1619 1615 1612 1608 1604 1600 1597 1593 1589 1585 1582 1578 1575 1572 1569 1566 1563 1560 1558 1555 1553 1551 1549 1547 1545 1544 1543 1541
1535 1536 1539 1542 1564 1592 1602 1603 1603 1605 1608 1610 1611 1613 1615 1620 1624 1626 1626 1624 1621 1618 1615 1611 1608 1604 1600 1596 1592 1588 1584 1581 1577 1574 1570 1567 1564 1561 1557 1555 1552 1549 1547 1545 1543 1541 1540 1539 1538
1537 1538 1541 1556 1584 1599 1603 1604 1605 1607 1610 1610 1613 1615 1618 1623 1625 1626 1625 1623 1621 1618 1615 1611 1607 1603 1599 1595 1591 1587 1583 1579 1575 1571 1568 1565 1561 1558 1554 1552 1549 1546 1543 1541 1539 1537 1535 1534 1533
1539 1540 1551 1573 1598 1604 1604 1605 1606 1607 1610 1611 1614 1619 1622 1626 1626 1626 1625 1623 1621 1618 1614 1611 1606 1602 1598 1593 1589 1585 1580 1576 1573 1569 1565 1562 1559 1556 1552 1549 1546 1543 1540 1537 1534 1532 1530 1529 1528
1540 1543 1567 1593 1604 1606 1606 1606 1607 1608 1611 1614 1616 1621 1626 1627 1626 1626 1625 1623 1620 1617 1613 1609 1605 1601 1596 1592 1587 1583 1579 1575 1571 1567 1563 1559 1556 1553 1549 1546 1543 1540 1537 1533 1530 1528 1525 1523 1522
1542 1549 1579 1602 1606 1608 1608 1607 1608 1610 1613 1616 1618 1622 1626 1627 1626 1625 1624 1622 1619 1616 1612 1608 1604 1599 1595 1590 1585 1581 1577 1573 1569 1565 1561 1558 1554 1550 1546 1543 1539 1536 1533 1530 1527 1524 1521 1518 1516
1546 1563 1589 1600 1605 1607 1609 1609 1609 1611 1614 1616 1618 1621 1625 1626 1626 1625 1623 1621 1618 1614 1611 1606 1602 1597 1593 1589 1584 1580 1575 1571 1568 1564 1560 1556 1552 1548 1544 1540 1536 1533 1529 1526 1523 1519 1516 1513 1511
1551 1566 1589 1597 1601 1605 1607 1609 1610 1612 1614 1616 1617 1619 1623 1624 1625 1624 1622 1619 1616 1613 1609 1604 1600 1596 1591 1587 1583 1578 1574 1570 1566 1562 1558 1554 1550 1546 1542 1538 1534 1530 1526 1522 1519 1515 1511 1508 1506
1555 1572 1590 1594 1597 1603 1605 1607 1610 1612 1613 1615 1616 1618 1621 1623 1623 1622 1620 1617 1614 1611 1607 1602 1598 1593 1589 1585 1581 1577 1572 1568 1564 1559 1555 1551 1547 1542 1538 1534 1530 1527 1523 1518 1514 1510 1506 1502 1500
1560 1583 1590 1592 1593 1598 1602 1605 1609 1612 1613 1616 1617 1619 1621 1622 1622 1620 1618 1615 1612 1609 1605 1600 1595 1591 1587 1583 1579 1575 1571 1566 1562 1557 1553 1548 1544 1539 1535 1531 1526 1522 1518 1514 1510 1506 1501 1497 1494
1572 1586 1591 1594 1595 1598 1602 1606 1608 1610 1613 1614 1615 1617 1619 1620 1620 1618 1616 1614 1611 1608 1603 1598 1594 1590 1586 1582 1578 1574 1569 1565 1560 1555 1550 1545 1541 1536 1531 1526 1521 1516 1512 1508 1504 1500 1496 1492 1489
1580 1590 1592 1596 1597 1599 1602 1605 1608 1610 1611 1613 1615 1617 1618 1619 1619 1617 1615 1613 1611 1606 1601 1597 1593 1590 1586 1581 1577 1572 1567 1563 1557 1552 1547 1541 1536 1532 1527 1522 1517 1512 1507 1502 1498 1494 1490 1487 1484
1585 1593 1595 1597 1598 1601 1604 1606 1608 1610 1612 1613 1616 1617 1618 1618 1617 1616 1615 1613 1609 1605 1600 1596 1593 1589 1585 1581 1576 1571 1566 1561 1556 1550 1545 1539 1533 1527 1522 1517 1512 1508 1503 1498 1492 1488 1484 1480 1477
1590 1593 1597 1599 1600 1603 1604 1607 1609 1611 1612 1614 1615 1616 1617 1617 1616 1616 1614 1611 1608 1604 1600 1596 1593 1588 1584 1580 1575 1570 1564 1559 1554 1548 1542 1536 1530 1524 1518 1513 1508 1503 1498 1493 1488 1483 1478 1474 1470
1592 1596 1600 1601 1602 1604 1606 1609 1608 1609 1611 1613 1614 1615 1616 1616 1616 1615 1613 1610 1607 1603 1599 1595 1591 1587 1583 1579 1574 1568 1563 1556 1550 1544 1538 1532 1526 1520 1514 1509 1504 1499 1494 1489 1483 1478 1473 1468 1464
1593 1598 1600 1602 1602 1604 1608 1605 1605 1607 1609 1611 1613 1614 1614 1615 1614 1613 1611 1609 1606 1602 1598 1594 1590 1586 1582 1577 1572 1566 1560 1554 1547 1541 1535 1529 1523 1517 1511 1505 1500 1494 1489 1484 1479 1473 1467 1462 1457
1595 1597 1597 1601 1602 1603 1605 1603 1604 1605 1607 1609 1610 1612 1612 1613 1613 1612 1610 1608 1605 1601 1596 1592 1588 1584 1580 1574 1569 1563 1557 1550 1544 1538 1532 1525 1519 1513 1507 1501 1496 1490 1485 1480 1475 1469 1464 1457 1452
1591 1594 1594 1597 1599 1602 1604 1602 1601 1603 1604 1606 1608 1609 1610 1611 1611 1610 1609 1606 1603 1599 1595 1591 1586 1582 1576 1571 1565 1559 1553 1547 1541 1534 1528 1522 1515 1509 1503 1497 1491 1486 1480 1475 1470 1465 1460 1455 1449
1587 1591 1593 1594 1596 1600 1600 1599 1598 1600 1602 1603 1605 1606 1607 1608 1609 1609 1607 1605 1601 1597 1593 1589 1584 1579 1573 1566 1559 1553 1546 1541 1535 1529 1524 1518 1511 1505 1498 1492 1486 1481 1476 1471 1466 1461 1455 1451 1446
1589 1591 1593 1595 1596 1598 1598 1597 1595 1596 1597 1599 1600 1602 1604 1606 1607 1607 1605 1602 1599 1595 1591 1586 1581 1576 1570 1563 1557 1550 1543 1537 1531 1525 1519 1513 1507 1500 1494 1487 1482 1476 1471 1466 1462 1457 1452 1447 1445
1590 1590 1592 1594 1597 1598 1598 1593 1595 1595 1596 1598 1599 1600 1602 1604 1605 1604 1603 1600 1596 1592 1588 1584 1579 1574 1568 1561 1554 1547 1540 1533 1527 1519 1513 1508 1502 1496 1490 1483 1477 1472 1467 1462 1458 1453 1449 1443 1440
1590 1589 1590 1594 1599 1601 1599 1601 1588 1594 1595 1595 1595 1597 1599 1601 1602 1601 1600 1597 1594 1590 1586 1582 1577 1571 1565 1558 1551 1544 1537 1530 1523 1516 1510 1504 1498 1492 1486 1479 1473 1468 1463 1458 1453 1449 1445 1440 1436
1590 1589 1591 1594 1597 1601 1602 1604 1591 1595 1594 1592 1592 1593 1596 1598 1599 1598 1597 1594 1591 1588 1584 1580 1575 1569 1562 1556 1549 1542 1535 1528 1521 1514 1507 1500 1494 1488 1482 1476 1470 1464 1458 1453 1448 1444 1440 1436 1432
1589 1592 1595 1600 1603 1601 1596 1600 1589 1594 1589 1586 1587 1590 1593 1595 1596 1595 1594 1592 1589 1586 1582 1577 1572 1566 1560 1553 1547 1540 1533 1526 1518 1511 1504 1497 1491 1484 1479 1472 1466 1460 1453 1448 1442 1438 1434 1430 1427
1591 1596 1602 1598 1602 1598 1598 1597 1588 1583 1583 1583 1583 1586 1590 1592 1593 1593 1592 1589 1587 1584 1580 1575 1569 1563 1557 1551 1544 1538 1531 1524 1517 1510 1503 1496 1488 1481 1475 1468 1462 1455 1448 1442 1437 1432 1427 1424 1421
1593 1595 1605 1607 1608 1605 1598 1596 1584 1583 1582 1581 1581 1584 1587 1589 1590 1590 1589 1587 1584 1581 1577 1571 1566 1560 1554 1548 1542 1536 1529 1523 1516 1510 1503 1496 1488 1481 1473 1466 1458 1450 1443 1436 1431 1426 1422 1419 1416
1594 1602 1601 1610 1611 1613 1601 1590 1581 1582 1582 1581 1581 1583 1585 1586 1587 1587 1586 1584 1582 1578 1574 1569 1564 1558 1552 1546 1540 1533 1527 1521 1514 1508 1502 1495 1488 1480 1472 1463 1454 1446 1438 1432 1426 1422 1418 1415 1412
1595 1601 1608 1610 1609 1609 1599 1591 1582 1578 1579 1579 1579 1580 1581 1584 1584 1584 1583 1581 1579 1576 1571 1567 1562 1556 1551 1545 1538 1532 1526 1519 1513 1507 1500 1493 1486 1479 1470 1461 1452 1443 1436 1429 1424 1419 1415 1412 1410
1598 1601 1605 1613 1612 1612 1609 1586 1571 1568 1569 1571 1573 1575 1578 1580 1581 1581 1580 1579 1576 1573 1569 1565 1560 1554 1549 1543 1537 1531 1524 1518 1512 1505 1499 1492 1485 1478 1469 1461 1452 1443 1435 1429 1424 1419 1415 1412 1410
1592 1595 1603 1604 1607 1614 1617 1588 1567 1566 1564 1565 1568 1572 1575 1577 1578 1578 1578 1576 1574 1570 1567 1562 1558 1553 1547 1541 1536 1530 1523 1517 1510 1504 1498 1492 1485 1478 1470 1463 1454 1446 1439 1432 1427 1422 1418 1415 1412